2019-146T00:00:17.041,   1,   5,   1,    30,   4,       4096,     12.981,  47481.752,    44.865,    -5.989,     0.852,   194.412, 3, 2.400E+01,  1.50,  78,  2.143E-02,  1.147E-01, -9.999E+09, -9.999E+09, -9.999E+09, -9.999E+09, -9.999E+09, -9.999E+09, -9.999E+09, -9.999E+09, -9.999E+09, -9.999E+09, -9.999E+09, -9.999E+09, -9.999E+09, -9.999E+09, -9.999E+09, -9.999E+09, 255
2019-146T00:00:47.041,   1,   5,   1,    30,   4,       4096,     12.981,  47481.752,    44.862,    -5.988,     0.852,   194.110, 3, 2.400E+01,  1.50,  78,  2.516E-02,  1.147E-01, -9.999E+09, -9.999E+09, -9.999E+09, -9.999E+09, -9.999E+09, -9.999E+09, -9.999E+09, -9.999E+09, -9.999E+09, -9.999E+09, -9.999E+09, -9.999E+09, -9.999E+09, -9.999E+09, -9.999E+09, -9.999E+09, 255
2019-146T00:01:17.042,   1,   5,   1,    30,   4,       4096,     12.981,  47481.752,    44.859,    -5.988,     0.852,   193.807, 3, 2.400E+01,  1.50,  78,  2.765E-02,  1.147E-01, -9.999E+09, -9.999E+09, -9.999E+09, -9.999E+09, -9.999E+09, -9.999E+09, -9.999E+09, -9.999E+09, -9.999E+09, -9.999E+09, -9.999E+09, -9.999E+09, -9.999E+09, -9.999E+09, -9.999E+09, -9.999E+09, 255
2019-146T00:01:47.042,   1,   5,   1,    30,   4,       4096,     12.981,  47481.752,    44.856,    -5.987,     0.852,   193.505, 3, 2.400E+01,  1.50,  78,  2.982E-02,  1.147E-01, -9.999E+09, -9.999E+09, -9.999E+09, -9.999E+09, -9.999E+09, -9.999E+09, -9.999E+09, -9.999E+09, -9.999E+09, -9.999E+09, -9.999E+09, -9.999E+09, -9.999E+09, -9.999E+09, -9.999E+09, -9.999E+09, 255
2019-146T00:02:17.042,   1,   5,   1,    30,   4,       4096,     12.981,  47481.752,    44.853,    -5.986,     0.852,   193.202, 3, 2.400E+01,  1.50,  78,  1.336E-02,  1.147E-01, -9.999E+09, -9.999E+09, -9.999E+09, -9.999E+09, -9.999E+09, -9.999E+09, -9.999E+09, -9.999E+09, -9.999E+09, -9.999E+09, -9.999E+09, -9.999E+09, -9.999E+09, -9.999E+09, -9.999E+09, -9.999E+09, 255
2019-146T00:02:47.043,   1,   5,   1,    30,   4,       4096,     12.981,  47481.752,    44.850,    -5.986,     0.852,   192.900, 3, 2.400E+01,  1.50,  78,  2.457E-02,  1.147E-01, -9.999E+09, -9.999E+09, -9.999E+09, -9.999E+09, -9.999E+09, -9.999E+09, -9.999E+09, -9.999E+09, -9.999E+09, -9.999E+09, -9.999E+09, -9.999E+09, -9.999E+09, -9.999E+09, -9.999E+09, -9.999E+09, 255
2019-146T00:03:17.043,   1,   5,   1,    30,   4,       4096,     12.981,  47481.752,    44.848,    -5.985,     0.852,   192.598, 3, 2.400E+01,  1.50,  78,  1.978E-02,  1.147E-01, -9.999E+09, -9.999E+09, -9.999E+09, -9.999E+09, -9.999E+09, -9.999E+09, -9.999E+09, -9.999E+09, -9.999E+09, -9.999E+09, -9.999E+09, -9.999E+09, -9.999E+09, -9.999E+09, -9.999E+09, -9.999E+09, 255
2019-146T00:03:47.043,   1,   5,   1,    30,   4,       4096,     12.981,  47481.752,    44.845,    -5.984,     0.852,   192.295, 3, 2.400E+01,  1.50,  78,  2.009E-02,  1.147E-01, -9.999E+09, -9.999E+09, -9.999E+09, -9.999E+09, -9.999E+09, -9.999E+09, -9.999E+09, -9.999E+09, -9.999E+09, -9.999E+09, -9.999E+09, -9.999E+09, -9.999E+09, -9.999E+09, -9.999E+09, -9.999E+09, 255
2019-146T00:04:17.044,   1,   5,   1,    30,   4,       4096,     12.981,  47481.752,    44.842,    -5.983,     0.852,   191.993, 3, 2.400E+01,  1.50,  78,  1.316E-02,  1.147E-01, -9.999E+09, -9.999E+09, -9.999E+09, -9.999E+09, -9.999E+09, -9.999E+09, -9.999E+09, -9.999E+09, -9.999E+09, -9.999E+09, -9.999E+09, -9.999E+09, -9.999E+09, -9.999E+09, -9.999E+09, -9.999E+09, 255
2019-146T00:04:47.044,   1,   5,   1,    30,   4,       4096,     12.981,  47481.752,    44.839,    -5.983,     0.852,   191.690, 3, 2.400E+01,  1.50,  78,  2.680E-02,  1.147E-01, -9.999E+09, -9.999E+09, -9.999E+09, -9.999E+09, -9.999E+09, -9.999E+09, -9.999E+09, -9.999E+09, -9.999E+09, -9.999E+09, -9.999E+09, -9.999E+09, -9.999E+09, -9.999E+09, -9.999E+09, -9.999E+09, 255
2019-146T00:05:17.044,   1,   5,   1,    30,   4,       4096,     12.981,  47481.752,    44.836,    -5.982,     0.852,   191.388, 3, 2.400E+01,  1.50,  78,  2.650E-02,  1.147E-01, -9.999E+09, -9.999E+09, -9.999E+09, -9.999E+09, -9.999E+09, -9.999E+09, -9.999E+09, -9.999E+09, -9.999E+09, -9.999E+09, -9.999E+09, -9.999E+09, -9.999E+09, -9.999E+09, -9.999E+09, -9.999E+09, 255
2019-146T00:05:47.045,   1,   5,   1,    30,   4,       4096,     12.981,  47481.752,    44.833,    -5.981,     0.852,   191.085, 3, 2.400E+01,  1.50,  78,  2.913E-02,  1.147E-01, -9.999E+09, -9.999E+09, -9.999E+09, -9.999E+09, -9.999E+09, -9.999E+09, -9.999E+09, -9.999E+09, -9.999E+09, -9.999E+09, -9.999E+09, -9.999E+09, -9.999E+09, -9.999E+09, -9.999E+09, -9.999E+09, 255
2019-146T00:06:17.045,   1,   5,   1,    30,   4,       4096,     12.981,  47481.752,    44.830,    -5.980,     0.852,   190.783, 3, 2.400E+01,  1.50,  78,  1.894E-02,  1.147E-01, -9.999E+09, -9.999E+09, -9.999E+09, -9.999E+09, -9.999E+09, -9.999E+09, -9.999E+09, -9.999E+09, -9.999E+09, -9.999E+09, -9.999E+09, -9.999E+09, -9.999E+09, -9.999E+09, -9.999E+09, -9.999E+09, 255
2019-146T00:06:47.045,   1,   5,   1,    30,   4,       4096,     12.981,  47481.752,    44.828,    -5.980,     0.852,   190.481, 3, 2.400E+01,  1.50,  78,  2.089E-02,  1.147E-01, -9.999E+09, -9.999E+09, -9.999E+09, -9.999E+09, -9.999E+09, -9.999E+09, -9.999E+09, -9.999E+09, -9.999E+09, -9.999E+09, -9.999E+09, -9.999E+09, -9.999E+09, -9.999E+09, -9.999E+09, -9.999E+09, 255
2019-146T00:07:17.046,   1,   5,   1,    30,   4,       4096,     12.981,  47481.752,    44.825,    -5.979,     0.852,   190.178, 3, 2.400E+01,  1.50,  78,  1.938E-02,  1.147E-01, -9.999E+09, -9.999E+09, -9.999E+09, -9.999E+09, -9.999E+09, -9.999E+09, -9.999E+09, -9.999E+09, -9.999E+09, -9.999E+09, -9.999E+09, -9.999E+09, -9.999E+09, -9.999E+09, -9.999E+09, -9.999E+09, 255
2019-146T00:07:47.046,   1,   5,   1,    30,   4,       4096,     12.981,  47481.752,    44.822,    -5.978,     0.852,   189.876, 3, 2.400E+01,  1.50,  78,  1.741E-02,  1.147E-01, -9.999E+09, -9.999E+09, -9.999E+09, -9.999E+09, -9.999E+09, -9.999E+09, -9.999E+09, -9.999E+09, -9.999E+09, -9.999E+09, -9.999E+09, -9.999E+09, -9.999E+09, -9.999E+09, -9.999E+09, -9.999E+09, 255
2019-146T00:08:17.046,   1,   5,   1,    30,   4,       4096,     12.981,  47481.752,    44.819,    -5.978,     0.852,   189.573, 3, 2.400E+01,  1.50,  78,  1.201E-02,  1.147E-01, -9.999E+09, -9.999E+09, -9.999E+09, -9.999E+09, -9.999E+09, -9.999E+09, -9.999E+09, -9.999E+09, -9.999E+09, -9.999E+09, -9.999E+09, -9.999E+09, -9.999E+09, -9.999E+09, -9.999E+09, -9.999E+09, 255
2019-146T00:08:47.047,   1,   5,   1,    30,   4,       4096,     12.981,  47481.752,    44.816,    -5.977,     0.852,   189.271, 3, 2.400E+01,  1.50,  78,  1.379E-02,  1.147E-01, -9.999E+09, -9.999E+09, -9.999E+09, -9.999E+09, -9.999E+09, -9.999E+09, -9.999E+09, -9.999E+09, -9.999E+09, -9.999E+09, -9.999E+09, -9.999E+09, -9.999E+09, -9.999E+09, -9.999E+09, -9.999E+09, 255
2019-146T00:09:17.047,   1,   5,   1,    30,   4,       4096,     12.981,  47481.752,    44.813,    -5.976,     0.852,   188.969, 3, 2.400E+01,  1.50,  78,  3.037E-02,  1.147E-01, -9.999E+09, -9.999E+09, -9.999E+09, -9.999E+09, -9.999E+09, -9.999E+09, -9.999E+09, -9.999E+09, -9.999E+09, -9.999E+09, -9.999E+09, -9.999E+09, -9.999E+09, -9.999E+09, -9.999E+09, -9.999E+09, 255
2019-146T00:09:47.047,   1,   5,   1,    30,   4,       4096,     12.981,  47481.752,    44.811,    -5.975,     0.852,   188.666, 3, 2.400E+01,  1.50,  78,  3.018E-02,  1.147E-01, -9.999E+09, -9.999E+09, -9.999E+09, -9.999E+09, -9.999E+09, -9.999E+09, -9.999E+09, -9.999E+09, -9.999E+09, -9.999E+09, -9.999E+09, -9.999E+09, -9.999E+09, -9.999E+09, -9.999E+09, -9.999E+09, 255
2019-146T00:10:17.048,   1,   5,   1,    30,   4,       4096,     12.981,  47481.752,    44.808,    -5.975,     0.852,   188.364, 3, 2.400E+01,  1.50,  78,  2.520E-02,  1.147E-01, -9.999E+09, -9.999E+09, -9.999E+09, -9.999E+09, -9.999E+09, -9.999E+09, -9.999E+09, -9.999E+09, -9.999E+09, -9.999E+09, -9.999E+09, -9.999E+09, -9.999E+09, -9.999E+09, -9.999E+09, -9.999E+09, 255
2019-146T00:10:47.048,   1,   5,   1,    30,   4,       4096,     12.981,  47481.752,    44.805,    -5.974,     0.852,   188.061, 3, 2.400E+01,  1.50,  78,  3.429E-02,  1.147E-01, -9.999E+09, -9.999E+09, -9.999E+09, -9.999E+09, -9.999E+09, -9.999E+09, -9.999E+09, -9.999E+09, -9.999E+09, -9.999E+09, -9.999E+09, -9.999E+09, -9.999E+09, -9.999E+09, -9.999E+09, -9.999E+09, 255
2019-146T00:11:17.048,   1,   5,   1,    30,   4,       4096,     12.981,  47481.752,    44.802,    -5.973,     0.852,   187.759, 3, 2.400E+01,  1.50,  78,  3.342E-02,  1.147E-01, -9.999E+09, -9.999E+09, -9.999E+09, -9.999E+09, -9.999E+09, -9.999E+09, -9.999E+09, -9.999E+09, -9.999E+09, -9.999E+09, -9.999E+09, -9.999E+09, -9.999E+09, -9.999E+09, -9.999E+09, -9.999E+09, 255
2019-146T00:11:47.049,   1,   5,   1,    30,   4,       4096,     12.981,  47481.752,    44.799,    -5.973,     0.852,   187.456, 3, 2.400E+01,  1.50,  78,  3.493E-02,  1.147E-01, -9.999E+09, -9.999E+09, -9.999E+09, -9.999E+09, -9.999E+09, -9.999E+09, -9.999E+09, -9.999E+09, -9.999E+09, -9.999E+09, -9.999E+09, -9.999E+09, -9.999E+09, -9.999E+09, -9.999E+09, -9.999E+09, 255
2019-146T00:12:17.049,   1,   5,   1,    30,   4,       4096,     12.981,  47481.752,    44.796,    -5.972,     0.852,   187.154, 3, 2.400E+01,  1.50,  78,  3.213E-02,  1.147E-01, -9.999E+09, -9.999E+09, -9.999E+09, -9.999E+09, -9.999E+09, -9.999E+09, -9.999E+09, -9.999E+09, -9.999E+09, -9.999E+09, -9.999E+09, -9.999E+09, -9.999E+09, -9.999E+09, -9.999E+09, -9.999E+09, 255
2019-146T00:12:47.049,   1,   5,   1,    30,   4,       4096,     12.981,  47481.752,    44.794,    -5.971,     0.852,   186.852, 3, 2.400E+01,  1.50,  78,  3.601E-02,  1.147E-01, -9.999E+09, -9.999E+09, -9.999E+09, -9.999E+09, -9.999E+09, -9.999E+09, -9.999E+09, -9.999E+09, -9.999E+09, -9.999E+09, -9.999E+09, -9.999E+09, -9.999E+09, -9.999E+09, -9.999E+09, -9.999E+09, 255
2019-146T00:13:17.050,   1,   5,   1,    30,   4,       4096,     12.981,  47481.752,    44.791,    -5.970,     0.852,   186.549, 3, 2.400E+01,  1.50,  78,  4.633E-02,  1.147E-01, -9.999E+09, -9.999E+09, -9.999E+09, -9.999E+09, -9.999E+09, -9.999E+09, -9.999E+09, -9.999E+09, -9.999E+09, -9.999E+09, -9.999E+09, -9.999E+09, -9.999E+09, -9.999E+09, -9.999E+09, -9.999E+09, 255
2019-146T00:13:47.050,   1,   5,   1,    30,   4,       4096,     12.981,  47481.752,    44.788,    -5.970,     0.852,   186.247, 3, 2.400E+01,  1.50,  78,  3.817E-02,  1.146E-01, -9.999E+09, -9.999E+09, -9.999E+09, -9.999E+09, -9.999E+09, -9.999E+09, -9.999E+09, -9.999E+09, -9.999E+09, -9.999E+09, -9.999E+09, -9.999E+09, -9.999E+09, -9.999E+09, -9.999E+09, -9.999E+09, 255
2019-146T00:14:17.051,   1,   5,   1,    30,   4,       4096,     12.981,  47481.752,    44.785,    -5.969,     0.852,   185.944, 3, 2.400E+01,  1.50,  78,  3.185E-02,  1.147E-01, -9.999E+09, -9.999E+09, -9.999E+09, -9.999E+09, -9.999E+09, -9.999E+09, -9.999E+09, -9.999E+09, -9.999E+09, -9.999E+09, -9.999E+09, -9.999E+09, -9.999E+09, -9.999E+09, -9.999E+09, -9.999E+09, 255
2019-146T00:14:47.051,   1,   5,   1,    30,   4,       4096,     12.981,  47481.752,    44.782,    -5.968,     0.852,   185.642, 3, 2.400E+01,  1.50,  78,  2.362E-02,  1.147E-01, -9.999E+09, -9.999E+09, -9.999E+09, -9.999E+09, -9.999E+09, -9.999E+09, -9.999E+09, -9.999E+09, -9.999E+09, -9.999E+09, -9.999E+09, -9.999E+09, -9.999E+09, -9.999E+09, -9.999E+09, -9.999E+09, 255
2019-146T00:15:17.051,   1,   5,   1,    30,   4,       4096,     12.981,  47481.752,    44.779,    -5.967,     0.852,   185.340, 3, 2.400E+01,  1.50,  78,  2.447E-02,  1.147E-01, -9.999E+09, -9.999E+09, -9.999E+09, -9.999E+09, -9.999E+09, -9.999E+09, -9.999E+09, -9.999E+09, -9.999E+09, -9.999E+09, -9.999E+09, -9.999E+09, -9.999E+09, -9.999E+09, -9.999E+09, -9.999E+09, 255
2019-146T00:15:47.052,   1,   5,   1,    30,   4,       4096,     12.981,  47481.752,    44.776,    -5.967,     0.852,   185.037, 3, 2.400E+01,  1.50,  78,  2.808E-02,  1.147E-01, -9.999E+09, -9.999E+09, -9.999E+09, -9.999E+09, -9.999E+09, -9.999E+09, -9.999E+09, -9.999E+09, -9.999E+09, -9.999E+09, -9.999E+09, -9.999E+09, -9.999E+09, -9.999E+09, -9.999E+09, -9.999E+09, 255
2019-146T00:16:17.052,   1,   5,   1,    30,   4,       4096,     12.981,  47481.752,    44.774,    -5.966,     0.852,   184.735, 3, 2.400E+01,  1.50,  78,  2.342E-02,  1.147E-01, -9.999E+09, -9.999E+09, -9.999E+09, -9.999E+09, -9.999E+09, -9.999E+09, -9.999E+09, -9.999E+09, -9.999E+09, -9.999E+09, -9.999E+09, -9.999E+09, -9.999E+09, -9.999E+09, -9.999E+09, -9.999E+09, 255
2019-146T00:16:47.052,   1,   5,   1,    30,   4,       4096,     12.981,  47481.752,    44.771,    -5.965,     0.852,   184.432, 3, 2.400E+01,  1.50,  78,  2.588E-02,  1.147E-01, -9.999E+09, -9.999E+09, -9.999E+09, -9.999E+09, -9.999E+09, -9.999E+09, -9.999E+09, -9.999E+09, -9.999E+09, -9.999E+09, -9.999E+09, -9.999E+09, -9.999E+09, -9.999E+09, -9.999E+09, -9.999E+09, 255
2019-146T00:17:17.053,   1,   5,   1,    30,   4,       4096,     12.981,  47481.752,    44.768,    -5.965,     0.852,   184.130, 3, 2.400E+01,  1.50,  78,  2.886E-02,  1.147E-01, -9.999E+09, -9.999E+09, -9.999E+09, -9.999E+09, -9.999E+09, -9.999E+09, -9.999E+09, -9.999E+09, -9.999E+09, -9.999E+09, -9.999E+09, -9.999E+09, -9.999E+09, -9.999E+09, -9.999E+09, -9.999E+09, 255
2019-146T00:17:47.053,   1,   5,   1,    30,   4,       4096,     12.981,  47481.752,    44.765,    -5.964,     0.852,   183.828, 3, 2.400E+01,  1.50,  78,  1.715E-02,  1.147E-01, -9.999E+09, -9.999E+09, -9.999E+09, -9.999E+09, -9.999E+09, -9.999E+09, -9.999E+09, -9.999E+09, -9.999E+09, -9.999E+09, -9.999E+09, -9.999E+09, -9.999E+09, -9.999E+09, -9.999E+09, -9.999E+09, 255
2019-146T00:18:17.053,   1,   5,   1,    30,   4,       4096,     12.981,  47481.752,    44.762,    -5.963,     0.852,   183.525, 3, 2.400E+01,  1.50,  78,  2.356E-02,  1.146E-01, -9.999E+09, -9.999E+09, -9.999E+09, -9.999E+09, -9.999E+09, -9.999E+09, -9.999E+09, -9.999E+09, -9.999E+09, -9.999E+09, -9.999E+09, -9.999E+09, -9.999E+09, -9.999E+09, -9.999E+09, -9.999E+09, 255
2019-146T00:18:47.054,   1,   5,   1,    30,   4,       4096,     12.981,  47481.752,    44.759,    -5.962,     0.852,   183.223, 3, 2.400E+01,  1.50,  78,  3.336E-02,  1.147E-01, -9.999E+09, -9.999E+09, -9.999E+09, -9.999E+09, -9.999E+09, -9.999E+09, -9.999E+09, -9.999E+09, -9.999E+09, -9.999E+09, -9.999E+09, -9.999E+09, -9.999E+09, -9.999E+09, -9.999E+09, -9.999E+09, 255
2019-146T00:19:17.054,   1,   5,   1,    30,   4,       4096,     12.981,  47481.752,    44.757,    -5.962,     0.852,   182.920, 3, 2.400E+01,  1.50,  78,  2.551E-02,  1.147E-01, -9.999E+09, -9.999E+09, -9.999E+09, -9.999E+09, -9.999E+09, -9.999E+09, -9.999E+09, -9.999E+09, -9.999E+09, -9.999E+09, -9.999E+09, -9.999E+09, -9.999E+09, -9.999E+09, -9.999E+09, -9.999E+09, 255
2019-146T00:19:47.054,   1,   5,   1,    30,   4,       4096,     12.981,  47481.752,    44.754,    -5.961,     0.852,   182.618, 3, 2.400E+01,  1.50,  78,  2.297E-02,  1.147E-01, -9.999E+09, -9.999E+09, -9.999E+09, -9.999E+09, -9.999E+09, -9.999E+09, -9.999E+09, -9.999E+09, -9.999E+09, -9.999E+09, -9.999E+09, -9.999E+09, -9.999E+09, -9.999E+09, -9.999E+09, -9.999E+09, 255
2019-146T00:21:17.055,   1,   5,   1,    30,   4,       4096,     12.981,  47481.752,    44.745,    -5.959,     0.852,   181.711, 3, 2.400E+01,  1.50,  78,  2.599E-02,  1.147E-01, -9.999E+09, -9.999E+09, -9.999E+09, -9.999E+09, -9.999E+09, -9.999E+09, -9.999E+09, -9.999E+09, -9.999E+09, -9.999E+09, -9.999E+09, -9.999E+09, -9.999E+09, -9.999E+09, -9.999E+09, -9.999E+09, 255
2019-146T00:21:47.056,   1,   5,   1,    30,   4,       4096,     12.981,  47481.752,    44.742,    -5.958,     0.852,   181.408, 3, 2.400E+01,  1.50,  78,  2.334E-02,  1.147E-01, -9.999E+09, -9.999E+09, -9.999E+09, -9.999E+09, -9.999E+09, -9.999E+09, -9.999E+09, -9.999E+09, -9.999E+09, -9.999E+09, -9.999E+09, -9.999E+09, -9.999E+09, -9.999E+09, -9.999E+09, -9.999E+09, 255
2019-146T00:22:17.056,   1,   5,   1,    30,   4,       4096,     12.981,  47481.752,    44.739,    -5.957,     0.852,   181.106, 3, 2.400E+01,  1.50,  78,  2.412E-02,  1.147E-01, -9.999E+09, -9.999E+09, -9.999E+09, -9.999E+09, -9.999E+09, -9.999E+09, -9.999E+09, -9.999E+09, -9.999E+09, -9.999E+09, -9.999E+09, -9.999E+09, -9.999E+09, -9.999E+09, -9.999E+09, -9.999E+09, 255
2019-146T00:22:47.057,   1,   5,   1,    30,   4,       4096,     12.981,  47481.752,    44.737,    -5.956,     0.852,   180.803, 3, 2.400E+01,  1.50,  78,  3.067E-02,  1.146E-01, -9.999E+09, -9.999E+09, -9.999E+09, -9.999E+09, -9.999E+09, -9.999E+09, -9.999E+09, -9.999E+09, -9.999E+09, -9.999E+09, -9.999E+09, -9.999E+09, -9.999E+09, -9.999E+09, -9.999E+09, -9.999E+09, 255
2019-146T00:23:17.057,   1,   5,   1,    30,   4,       4096,     12.981,  47481.752,    44.734,    -5.956,     0.852,   180.501, 3, 2.400E+01,  1.50,  78,  3.243E-02,  1.147E-01, -9.999E+09, -9.999E+09, -9.999E+09, -9.999E+09, -9.999E+09, -9.999E+09, -9.999E+09, -9.999E+09, -9.999E+09, -9.999E+09, -9.999E+09, -9.999E+09, -9.999E+09, -9.999E+09, -9.999E+09, -9.999E+09, 255
2019-146T00:23:47.057,   1,   5,   1,    30,   4,       4096,     12.981,  47481.752,    44.731,    -5.955,     0.852,   180.199, 3, 2.400E+01,  1.50,  78,  2.304E-02,  1.147E-01, -9.999E+09, -9.999E+09, -9.999E+09, -9.999E+09, -9.999E+09, -9.999E+09, -9.999E+09, -9.999E+09, -9.999E+09, -9.999E+09, -9.999E+09, -9.999E+09, -9.999E+09, -9.999E+09, -9.999E+09, -9.999E+09, 255
2019-146T00:24:17.057,   1,   5,   1,    30,   4,       4096,     12.981,  47481.752,    44.728,    -5.954,     0.852,   179.896, 3, 2.400E+01,  1.50,  78,  1.981E-02,  1.147E-01, -9.999E+09, -9.999E+09, -9.999E+09, -9.999E+09, -9.999E+09, -9.999E+09, -9.999E+09, -9.999E+09, -9.999E+09, -9.999E+09, -9.999E+09, -9.999E+09, -9.999E+09, -9.999E+09, -9.999E+09, -9.999E+09, 255
2019-146T00:24:47.058,   1,   5,   1,    30,   4,       4096,     12.981,  47481.752,    44.725,    -5.954,     0.852,   179.594, 3, 2.400E+01,  1.50,  78,  3.045E-02,  1.147E-01, -9.999E+09, -9.999E+09, -9.999E+09, -9.999E+09, -9.999E+09, -9.999E+09, -9.999E+09, -9.999E+09, -9.999E+09, -9.999E+09, -9.999E+09, -9.999E+09, -9.999E+09, -9.999E+09, -9.999E+09, -9.999E+09, 255
2019-146T00:25:17.058,   1,   5,   1,    30,   4,       4096,     12.981,  47481.752,    44.722,    -5.953,     0.852,   179.291, 3, 2.400E+01,  1.50,  78,  2.008E-02,  1.147E-01, -9.999E+09, -9.999E+09, -9.999E+09, -9.999E+09, -9.999E+09, -9.999E+09, -9.999E+09, -9.999E+09, -9.999E+09, -9.999E+09, -9.999E+09, -9.999E+09, -9.999E+09, -9.999E+09, -9.999E+09, -9.999E+09, 255
2019-146T00:25:47.059,   1,   5,   1,    30,   4,       4096,     12.981,  47481.752,    44.719,    -5.952,     0.852,   178.989, 3, 2.400E+01,  1.50,  78,  1.497E-02,  1.146E-01, -9.999E+09, -9.999E+09, -9.999E+09, -9.999E+09, -9.999E+09, -9.999E+09, -9.999E+09, -9.999E+09, -9.999E+09, -9.999E+09, -9.999E+09, -9.999E+09, -9.999E+09, -9.999E+09, -9.999E+09, -9.999E+09, 255
2019-146T00:26:17.059,   1,   5,   1,    30,   4,       4096,     12.981,  47481.752,    44.717,    -5.951,     0.852,   178.686, 3, 2.400E+01,  1.50,  78,  1.896E-02,  1.147E-01, -9.999E+09, -9.999E+09, -9.999E+09, -9.999E+09, -9.999E+09, -9.999E+09, -9.999E+09, -9.999E+09, -9.999E+09, -9.999E+09, -9.999E+09, -9.999E+09, -9.999E+09, -9.999E+09, -9.999E+09, -9.999E+09, 255
2019-146T00:26:47.059,   1,   5,   1,    30,   4,       4096,     12.981,  47481.752,    44.714,    -5.951,     0.852,   178.384, 3, 2.400E+01,  1.50,  78,  2.372E-02,  1.147E-01, -9.999E+09, -9.999E+09, -9.999E+09, -9.999E+09, -9.999E+09, -9.999E+09, -9.999E+09, -9.999E+09, -9.999E+09, -9.999E+09, -9.999E+09, -9.999E+09, -9.999E+09, -9.999E+09, -9.999E+09, -9.999E+09, 255
2019-146T00:27:17.060,   1,   5,   1,    30,   4,       4096,     12.981,  47481.752,    44.711,    -5.950,     0.852,   178.082, 3, 2.400E+01,  1.50,  78,  3.046E-02,  1.147E-01, -9.999E+09, -9.999E+09, -9.999E+09, -9.999E+09, -9.999E+09, -9.999E+09, -9.999E+09, -9.999E+09, -9.999E+09, -9.999E+09, -9.999E+09, -9.999E+09, -9.999E+09, -9.999E+09, -9.999E+09, -9.999E+09, 255
2019-146T00:27:47.060,   1,   5,   1,    30,   4,       4096,     12.981,  47481.752,    44.708,    -5.949,     0.852,   177.779, 3, 2.400E+01,  1.50,  78,  1.650E-02,  1.147E-01, -9.999E+09, -9.999E+09, -9.999E+09, -9.999E+09, -9.999E+09, -9.999E+09, -9.999E+09, -9.999E+09, -9.999E+09, -9.999E+09, -9.999E+09, -9.999E+09, -9.999E+09, -9.999E+09, -9.999E+09, -9.999E+09, 255
2019-146T00:28:17.060,   1,   5,   1,    30,   4,       4096,     12.981,  47481.752,    44.705,    -5.948,     0.852,   177.477, 3, 2.400E+01,  1.50,  78,  1.448E-02,  1.147E-01, -9.999E+09, -9.999E+09, -9.999E+09, -9.999E+09, -9.999E+09, -9.999E+09, -9.999E+09, -9.999E+09, -9.999E+09, -9.999E+09, -9.999E+09, -9.999E+09, -9.999E+09, -9.999E+09, -9.999E+09, -9.999E+09, 255
2019-146T00:28:47.061,   1,   5,   1,    30,   4,       4096,     12.981,  47481.752,    44.702,    -5.948,     0.852,   177.174, 3, 2.400E+01,  1.50,  78,  1.706E-02,  1.147E-01, -9.999E+09, -9.999E+09, -9.999E+09, -9.999E+09, -9.999E+09, -9.999E+09, -9.999E+09, -9.999E+09, -9.999E+09, -9.999E+09, -9.999E+09, -9.999E+09, -9.999E+09, -9.999E+09, -9.999E+09, -9.999E+09, 255
2019-146T00:29:17.061,   1,   5,   1,    30,   4,       4096,     12.981,  47481.752,    44.700,    -5.947,     0.852,   176.872, 3, 2.400E+01,  1.50,  78,  1.321E-02,  1.147E-01, -9.999E+09, -9.999E+09, -9.999E+09, -9.999E+09, -9.999E+09, -9.999E+09, -9.999E+09, -9.999E+09, -9.999E+09, -9.999E+09, -9.999E+09, -9.999E+09, -9.999E+09, -9.999E+09, -9.999E+09, -9.999E+09, 255
2019-146T00:31:17.062,   1,   5,   1,    30,   4,       4096,     12.981,  47481.752,    44.688,    -5.944,     0.851,   175.662, 3, 2.400E+01,  1.50,  78,  1.621E-02,  1.147E-01, -9.999E+09, -9.999E+09, -9.999E+09, -9.999E+09, -9.999E+09, -9.999E+09, -9.999E+09, -9.999E+09, -9.999E+09, -9.999E+09, -9.999E+09, -9.999E+09, -9.999E+09, -9.999E+09, -9.999E+09, -9.999E+09, 255
2019-146T00:32:17.063,   1,   5,   1,    30,   4,       4096,     12.981,  47481.752,    44.682,    -5.943,     0.851,   175.058, 3, 2.400E+01,  1.50,  78,  1.489E-02,  1.147E-01, -9.999E+09, -9.999E+09, -9.999E+09, -9.999E+09, -9.999E+09, -9.999E+09, -9.999E+09, -9.999E+09, -9.999E+09, -9.999E+09, -9.999E+09, -9.999E+09, -9.999E+09, -9.999E+09, -9.999E+09, -9.999E+09, 255
2019-146T00:33:17.064,   1,   5,   1,    30,   4,       4096,     12.981,  47481.752,    44.677,    -5.941,     0.851,   174.453, 3, 2.400E+01,  1.50,  78,  1.536E-02,  1.147E-01, -9.999E+09, -9.999E+09, -9.999E+09, -9.999E+09, -9.999E+09, -9.999E+09, -9.999E+09, -9.999E+09, -9.999E+09, -9.999E+09, -9.999E+09, -9.999E+09, -9.999E+09, -9.999E+09, -9.999E+09, -9.999E+09, 255
2019-146T00:34:17.064,   1,   5,   1,    30,   4,       4096,     12.981,  47481.752,    44.671,    -5.940,     0.851,   173.848, 3, 2.400E+01,  1.50,  78,  1.180E-02,  1.146E-01, -9.999E+09, -9.999E+09, -9.999E+09, -9.999E+09, -9.999E+09, -9.999E+09, -9.999E+09, -9.999E+09, -9.999E+09, -9.999E+09, -9.999E+09, -9.999E+09, -9.999E+09, -9.999E+09, -9.999E+09, -9.999E+09, 255
2019-146T00:36:17.066,   1,   5,   1,    30,   4,       4096,     12.981,  47481.752,    44.660,    -5.937,     0.851,   172.638, 3, 2.400E+01,  1.50,  78,  1.276E-02,  1.147E-01, -9.999E+09, -9.999E+09, -9.999E+09, -9.999E+09, -9.999E+09, -9.999E+09, -9.999E+09, -9.999E+09, -9.999E+09, -9.999E+09, -9.999E+09, -9.999E+09, -9.999E+09, -9.999E+09, -9.999E+09, -9.999E+09, 255
2019-146T00:36:47.066,   1,   5,   1,    30,   4,       4096,     12.981,  47481.752,    44.657,    -5.936,     0.851,   172.336, 3, 2.400E+01,  1.50,  78,  1.615E-02,  1.147E-01, -9.999E+09, -9.999E+09, -9.999E+09, -9.999E+09, -9.999E+09, -9.999E+09, -9.999E+09, -9.999E+09, -9.999E+09, -9.999E+09, -9.999E+09, -9.999E+09, -9.999E+09, -9.999E+09, -9.999E+09, -9.999E+09, 255